Weather History for Blackwell, OK

Change the Weather History Date:

Monday, December 26, 2011

  Actual Average (KPNC) Record (KPNC)
Temperature  
Mean Temperature 40 °F -  
Max Temperature 48 °F 49 °F 73 °F (2008)
Min Temperature 32 °F 27 °F -4 °F (1962)
Degree Days  
Heating Degree Days 25    
Moisture  
Dew Point 35 °F    
Average Humidity 84    
Maximum Humidity 100    
Minimum Humidity 66    
Precipitation  
Precipitation 0.01 in - - ()
Sea Level Pressure  
Sea Level Pressure 30.12 in    
Wind  
Wind Speed 5 mph (WNW)    
Max Wind Speed 12 mph    
Max Gust Speed -    
Visibility 10 miles    
Events Rain    
Averages and records for this station are not official NWS values.
T = Trace of Precipitation, MM = Missing Value Source: NWS Daily Summary

Daily Weather History Graph

Daily Weather History Graph

Search for Another Location

Airport:

Trip Planner

Search our weather history database for the weather conditions in past years. The results will help you decide how hot, cold, wet, or windy it might be!

Date:

Astronomy

Dec. 26, 2011 Rise Set
Actual Time 7:40 AM CST 5:19 PM CST
Civil Twilight 7:11 AM CST 5:48 PM CST
Nautical Twilight 6:38 AM CST 6:20 PM CST
Astronomical Twilight 6:07 AM CST 6:52 PM CST
Moon 9:03 AM CST (12/26) 7:45 PM CST (12/26)
Length of Visible Light 10h 37m
Length of Day
9h 39m
Waxing Crescent, 5% of the Moon is Illuminated
Dec 26
Waxing Crescent
Jan 1
First Quarter
Jan 9
Full
Jan 16
Last Quarter
Jan 23
New

Hourly Weather History & Observations

Time (CST) Temp. Windchill Dew Point Humidity Pressure Visibility Wind Dir Wind Speed Gust Speed Precip Events Conditions
12:15 AM 35.6 °F 30.7 °F 32.0 °F 87% 30.30 in 10.0 mi NNE 5.8 mph - N/A   Overcast
12:35 AM 35.6 °F 32.8 °F 32.0 °F 87% 30.29 in 10.0 mi North 3.5 mph - N/A   Mostly Cloudy
12:55 AM 32.0 °F 27.5 °F 30.2 °F 93% 30.28 in 10.0 mi NNW 4.6 mph - N/A   Mostly Cloudy
1:15 AM 32.0 °F 26.4 °F 32.0 °F 100% 30.28 in 10.0 mi North 5.8 mph - N/A   Overcast
1:35 AM 32.0 °F 25.6 °F 30.2 °F 93% 30.26 in 10.0 mi North 6.9 mph - N/A   Mostly Cloudy
1:55 AM 32.0 °F 25.6 °F 32.0 °F 100% 30.26 in 10.0 mi North 6.9 mph - N/A   Mostly Cloudy
2:15 AM 33.8 °F 30.8 °F 32.0 °F 93% 30.26 in 10.0 mi NW 3.5 mph - N/A   Overcast
2:35 AM 33.8 °F 29.6 °F 32.0 °F 93% 30.26 in 10.0 mi NW 4.6 mph - N/A   Overcast
2:55 AM 33.8 °F - 32.0 °F 93% 30.27 in 10.0 mi Calm Calm - N/A   Overcast
3:15 AM 33.8 °F 28.6 °F 32.0 °F 93% 30.26 in 10.0 mi West 5.8 mph - N/A   Overcast
3:35 AM 33.8 °F 27.7 °F 32.0 °F 93% 30.24 in 10.0 mi NW 6.9 mph - N/A Rain Light Rain
3:55 AM 35.6 °F 32.8 °F 32.0 °F 87% 30.24 in 10.0 mi NNW 3.5 mph - N/A   Overcast
4:15 AM 35.6 °F - 32.0 °F 87% 30.23 in 10.0 mi Calm Calm - N/A Rain Light Rain
4:35 AM 35.6 °F - 32.0 °F 87% 30.23 in 8.0 mi Calm Calm - N/A Rain Light Rain
4:55 AM 35.6 °F - 32.0 °F 87% 30.23 in 10.0 mi Calm Calm - N/A Rain Light Rain
5:15 AM 35.6 °F 32.8 °F 32.0 °F 87% 30.22 in 10.0 mi NNW 3.5 mph - N/A Rain Light Rain
5:35 AM 35.6 °F 29.9 °F 32.0 °F 87% 30.20 in 10.0 mi NNW 6.9 mph - N/A   Overcast
5:55 AM 35.6 °F 31.7 °F 32.0 °F 87% 30.20 in 10.0 mi NNE 4.6 mph - N/A   Overcast
6:15 AM 35.6 °F - 32.0 °F 87% 30.21 in 10.0 mi Calm Calm - N/A   Overcast
6:35 AM 35.6 °F - 33.8 °F 93% 30.20 in 10.0 mi Calm Calm - 0.01 in   Overcast
6:55 AM 35.6 °F - 32.0 °F 87% 30.20 in 10.0 mi Calm Calm - 0.01 in   Overcast
7:15 AM 35.6 °F 31.7 °F 33.8 °F 93% 30.18 in 10.0 mi NNE 4.6 mph - N/A   Overcast
7:35 AM 35.6 °F 30.7 °F 33.8 °F 93% 30.18 in 10.0 mi ENE 5.8 mph - N/A   Overcast
7:55 AM 35.6 °F 31.7 °F 33.8 °F 93% 30.17 in 9.0 mi ENE 4.6 mph - N/A   Overcast
8:15 AM 35.6 °F - 33.8 °F 93% 30.17 in 10.0 mi Calm Calm - N/A   Overcast
8:55 AM 37.4 °F 33.8 °F 35.6 °F 93% 30.16 in 10.0 mi East 4.6 mph - N/A   Overcast
9:15 AM 37.4 °F - 35.6 °F 93% 30.15 in 10.0 mi Calm Calm - N/A   Overcast
9:35 AM 39.2 °F - 35.6 °F 87% 30.16 in 10.0 mi Calm Calm - N/A   Overcast
10:15 AM 41.0 °F 37.1 °F 37.4 °F 87% 30.15 in 10.0 mi SE 5.8 mph - N/A   Overcast
10:35 AM 41.0 °F 36.4 °F 37.4 °F 87% 30.15 in 10.0 mi SE 6.9 mph - N/A   Mostly Cloudy
10:55 AM 41.0 °F 37.1 °F 37.4 °F 87% 30.13 in 10.0 mi SE 5.8 mph - N/A   Overcast
11:15 AM 41.0 °F 38.0 °F 37.4 °F 87% 30.12 in 10.0 mi SSE 4.6 mph - N/A   Overcast
11:35 AM 42.8 °F 40.1 °F 35.6 °F 76% 30.10 in 10.0 mi SE 4.6 mph - N/A   Overcast
11:55 AM 42.8 °F 39.3 °F 37.4 °F 81% 30.08 in 10.0 mi SSW 5.8 mph - N/A   Overcast
12:15 PM 44.6 °F 41.4 °F 37.4 °F 76% 30.07 in 10.0 mi SSW 5.8 mph - N/A   Overcast
12:35 PM 44.6 °F 40.7 °F 37.4 °F 76% 30.04 in 10.0 mi SSW 6.9 mph - N/A   Overcast
12:55 PM 44.6 °F 41.4 °F 37.4 °F 76% 30.02 in 10.0 mi SSW 5.8 mph - N/A   Overcast
1:15 PM 46.4 °F 42.4 °F 37.4 °F 71% 30.01 in 10.0 mi South 8.1 mph - N/A   Scattered Clouds
1:35 PM 46.4 °F 41.9 °F 37.4 °F 71% 30.00 in 10.0 mi SSW 9.2 mph - N/A   Mostly Cloudy
1:55 PM 48.2 °F - 37.4 °F 66% 29.98 in 10.0 mi SSW 11.5 mph - N/A   Partly Cloudy
2:15 PM 46.4 °F 41.5 °F 37.4 °F 71% 29.97 in 10.0 mi South 10.4 mph - N/A   Partly Cloudy
2:35 PM 46.4 °F 43.5 °F 37.4 °F 71% 29.98 in 10.0 mi WSW 5.8 mph - N/A   Mostly Cloudy
2:55 PM 46.4 °F 41.9 °F 37.4 °F 71% 29.98 in 10.0 mi WSW 9.2 mph - N/A   Overcast
3:15 PM 46.4 °F 41.9 °F 37.4 °F 71% 29.98 in 10.0 mi WSW 9.2 mph - N/A   Overcast
3:35 PM 46.4 °F 41.5 °F 35.6 °F 66% 29.99 in 10.0 mi West 10.4 mph - N/A   Overcast
3:55 PM 46.4 °F 42.4 °F 35.6 °F 66% 30.00 in 10.0 mi WNW 8.1 mph - N/A   Overcast
4:15 PM 46.4 °F 42.9 °F 37.4 °F 71% 30.01 in 10.0 mi West 6.9 mph - N/A   Overcast
4:35 PM 46.4 °F 42.9 °F 37.4 °F 71% 30.01 in 10.0 mi West 6.9 mph - N/A   Overcast
4:55 PM 44.6 °F 40.2 °F 37.4 °F 76% 30.01 in 10.0 mi WNW 8.1 mph - N/A   Overcast
5:15 PM 44.6 °F 40.2 °F 37.4 °F 76% 30.01 in 10.0 mi WNW 8.1 mph - N/A   Overcast
5:35 PM 44.6 °F 40.2 °F 37.4 °F 76% 30.01 in 10.0 mi WNW 8.1 mph - N/A   Overcast
5:55 PM 44.6 °F 40.2 °F 37.4 °F 76% 30.01 in 10.0 mi NW 8.1 mph - N/A   Overcast
6:15 PM 44.6 °F 42.2 °F 37.4 °F 76% 30.00 in 10.0 mi NW 4.6 mph - N/A   Overcast
6:35 PM 41.0 °F 39.0 °F 37.4 °F 87% 30.00 in 10.0 mi NW 3.5 mph - N/A   Scattered Clouds
6:55 PM 37.4 °F - 33.8 °F 87% 30.00 in 10.0 mi Calm Calm - N/A   Clear
7:15 PM 39.2 °F 35.0 °F 35.6 °F 87% 30.00 in 10.0 mi West 5.8 mph - N/A   Clear
7:35 PM 37.4 °F 32.1 °F 33.8 °F 87% 30.01 in 10.0 mi West 6.9 mph - N/A   Partly Cloudy
7:55 PM 35.6 °F 32.8 °F 33.8 °F 93% 29.99 in 10.0 mi WSW 3.5 mph - N/A   Clear
8:15 PM 33.8 °F 30.8 °F 32.0 °F 93% 29.98 in 10.0 mi SW 3.5 mph - N/A   Clear
8:35 PM 32.0 °F 27.5 °F 32.0 °F 100% 29.98 in 10.0 mi WSW 4.6 mph - N/A   Clear
8:55 PM 33.8 °F 28.6 °F 32.0 °F 93% 29.98 in 10.0 mi WSW 5.8 mph - N/A   Clear
9:15 PM 32.0 °F 25.6 °F 32.0 °F 100% 29.99 in 10.0 mi WNW 6.9 mph - N/A   Clear
9:35 PM 32.0 °F 24.8 °F 32.0 °F 100% 29.99 in 10.0 mi WNW 8.1 mph - N/A   Clear
9:55 PM 32.0 °F 24.2 °F 32.0 °F 100% 30.00 in 9.0 mi West 9.2 mph - N/A   Clear
10:15 PM 32.0 °F 24.2 °F 32.0 °F 100% 30.00 in 7.0 mi West 9.2 mph - N/A   Clear
10:35 PM 32.0 °F 24.8 °F 32.0 °F 100% 30.00 in 5.0 mi West 8.1 mph - N/A   Clear
10:55 PM 32.0 °F 25.6 °F 32.0 °F 100% 29.99 in 3.0 mi WSW 6.9 mph - N/A   Clear
11:15 PM 32.0 °F 24.2 °F 30.2 °F 93% 29.98 in 5.0 mi WSW 9.2 mph - N/A   Clear
11:35 PM 32.0 °F 24.2 °F 32.0 °F 100% 30.00 in 8.0 mi West 9.2 mph - N/A   Clear
11:55 PM 32.0 °F 24.8 °F 30.2 °F 93% 30.01 in 10.0 mi West 8.1 mph - N/A   Clear